When you browse on this site, cookies collect data to enhance your experience and personalize the content and advertising you see.
Visit our Privacy Policy to learn more. By continuing to use the site, you agree to this use of cookies and data.
  • In Switzerland
  • List of Countries
  • For 7 days
  • Water Temperature
  • Weather Map
  • Weather Widgets
  • user-avatar
    Login

    Hourly Weather Fort Smith

    Today, 15 December, Sunday

    Time Temperature Precipitation Wind Pressure Humidity
    00:00 +4°C° 0 mm 2 mps 747 mmHg 82%
    01:00 +3°C° 0 mm 3 mps 746 mmHg 81%
    02:00 +3°C° 0 mm 3 mps 746 mmHg 80%
    03:00 +3°C° 0 mm 4 mps 746 mmHg 79%
    04:00 +3°C° 0 mm 4 mps 746 mmHg 80%
    05:00 +3°C° 0 mm 4 mps 745 mmHg 81%
    06:00 +3°C° 0 mm 4 mps 745 mmHg 77%
    07:00 +2°C° 0 mm 5 mps 745 mmHg 79%
    08:00 +2°C° 0 mm 5 mps 745 mmHg 81%
    09:00 +3°C° 0 mm 5 mps 745 mmHg 83%
    10:00 +4°C° 0 mm 4 mps 744 mmHg 84%
    11:00 +5°C° 0 mm 4 mps 744 mmHg 85%
    12:00 +7°C° 0 mm 3 mps 744 mmHg 87%
    13:00 +7°C° 0 mm 2 mps 743 mmHg 87%
    14:00 +8°C° 0 mm 2 mps 743 mmHg 87%
    15:00 +8°C° 0 mm 2 mps 742 mmHg 87%
    16:00 +8°C° 0 mm 2 mps 743 mmHg 88%
    17:00 +9°C° 0 mm 1 mps 743 mmHg 90%
    18:00 +9°C° 0 mm 1 mps 744 mmHg 91%
    19:00 +9°C° 0 mm 1 mps 744 mmHg 91%
    20:00 +9°C° 0 mm 1 mps 745 mmHg 92%
    21:00 +9°C° 0 mm 1 mps 745 mmHg 92%
    22:00 +8°C° 0 mm 1 mps 745 mmHg 92%
    23:00 +8°C° 0 mm 1 mps 745 mmHg 93%

    Tomorrow, 16 December, Monday

    Time Temperature Precipitation Wind Pressure Humidity
    00:00 +7°C° 0 mm 1 mps 745 mmHg 94%
    01:00 +7°C° 0 mm 1 mps 745 mmHg 93%
    02:00 +7°C° 0 mm 1 mps 745 mmHg 92%
    03:00 +7°C° 0 mm 1 mps 745 mmHg 92%
    04:00 +7°C° 0.1 mm 1 mps 745 mmHg 91%
    05:00 +8°C° 0.1 mm 1 mps 745 mmHg 91%
    06:00 +7°C° 0.1 mm 2 mps 745 mmHg 91%
    07:00 +7°C° 0.1 mm 2 mps 745 mmHg 91%
    08:00 +7°C° 0.1 mm 2 mps 746 mmHg 90%
    09:00 +7°C° 0.1 mm 2 mps 746 mmHg 90%
    10:00 +5°C° 0 mm 3 mps 746 mmHg 87%
    11:00 +5°C° 0 mm 4 mps 746 mmHg 84%
    12:00 +5°C° 0 mm 5 mps 747 mmHg 82%
    13:00 +5°C° 0 mm 5 mps 747 mmHg 79%
    14:00 +3°C° 0 mm 5 mps 747 mmHg 77%
    15:00 +2°C° 0 mm 5 mps 747 mmHg 75%
    16:00 +1°C° 0 mm 5 mps 748 mmHg 75%
    17:00 0°C° 0 mm 4 mps 749 mmHg 76%
    18:00 -1°C° 0 mm 4 mps 750 mmHg 77%
    19:00 -1°C° 0 mm 4 mps 750 mmHg 77%
    20:00 -1°C° 0 mm 4 mps 751 mmHg 77%
    21:00 -1°C° 0 mm 4 mps 752 mmHg 77%
    22:00 -1°C° 0 mm 4 mps 753 mmHg 77%
    23:00 -1°C° 0 mm 4 mps 753 mmHg 76%

    Day after tomorrow, 17 December, Tuesday

    Time Temperature Precipitation Wind Pressure Humidity
    00:00 -1°C° 0 mm 4 mps 754 mmHg 75%
    01:00 -2°C° 0 mm 4 mps 754 mmHg 77%
    02:00 -1°C° 0 mm 3 mps 755 mmHg 79%
    03:00 -2°C° 0 mm 3 mps 755 mmHg 81%
    04:00 -2°C° 0 mm 3 mps 755 mmHg 81%
    05:00 -4°C° 0 mm 3 mps 756 mmHg 82%
    06:00 -3°C° 0 mm 2 mps 756 mmHg 82%
    07:00 -3°C° 0 mm 2 mps 756 mmHg 78%
    08:00 -2°C° 0 mm 2 mps 757 mmHg 74%
    09:00 -2°C° 0 mm 2 mps 757 mmHg 70%
    10:00 +1°C° 0 mm 2 mps 757 mmHg 64%
    11:00 +3°C° 0 mm 2 mps 757 mmHg 58%
    12:00 +5°C° 0 mm 2 mps 756 mmHg 51%
    13:00 +5°C° 0 mm 3 mps 756 mmHg 51%
    14:00 +7°C° 0 mm 3 mps 755 mmHg 50%
    15:00 +7°C° 0 mm 3 mps 755 mmHg 50%
    16:00 +5°C° 0 mm 2 mps 755 mmHg 58%
    17:00 +4°C° 0 mm 2 mps 755 mmHg 66%
    18:00 +3°C° 0 mm 1 mps 755 mmHg 74%
    19:00 +2°C° 0 mm 1 mps 756 mmHg 76%
    20:00 +2°C° 0 mm 1 mps 756 mmHg 78%
    21:00 +1°C° 0 mm 1 mps 756 mmHg 80%
    22:00 +1°C° 0 mm 1 mps 756 mmHg 79%
    23:00 +1°C° 0 mm 1 mps 756 mmHg 78%

    18 December, Wednesday

    Time Temperature Precipitation Wind Pressure Humidity
    00:00 0°C° 0 mm 1 mps 756 mmHg 78%
    01:00 0°C° 0 mm 1 mps 756 mmHg 76%
    02:00 0°C° 0 mm 1 mps 756 mmHg 74%
    03:00 0°C° 0 mm 1 mps 756 mmHg 73%
    04:00 0°C° 0 mm 1 mps 756 mmHg 72%
    05:00 0°C° 0 mm 1 mps 756 mmHg 72%
    06:00 0°C° 0 mm 1 mps 756 mmHg 71%
    07:00 +1°C° 0 mm 1 mps 756 mmHg 66%
    08:00 +2°C° 0 mm 1 mps 757 mmHg 61%
    09:00 +3°C° 0 mm 1 mps 757 mmHg 56%
    10:00 +5°C° 0 mm 1 mps 757 mmHg 51%
    11:00 +7°C° 0 mm 1 mps 757 mmHg 46%
    12:00 +9°C° 0 mm 1 mps 757 mmHg 41%
    13:00 +9°C° 0 mm 1 mps 756 mmHg 42%
    14:00 +10°C° 0 mm 1 mps 756 mmHg 42%
    15:00 +10°C° 0 mm 1 mps 755 mmHg 43%
    16:00 +8°C° 0 mm 1 mps 755 mmHg 50%
    17:00 +6°C° 0 mm 1 mps 755 mmHg 56%
    18:00 +3°C° 0 mm 0 mps 755 mmHg 63%
    19:00 +3°C° 0 mm 0 mps 755 mmHg 64%
    20:00 +2°C° 0 mm 0 mps 756 mmHg 65%
    21:00 +2°C° 0 mm 0 mps 756 mmHg 66%
    22:00 +2°C° 0 mm 1 mps 756 mmHg 68%
    23:00 +2°C° 0 mm 1 mps 756 mmHg 70%

    19 December, Thursday

    Time Temperature Precipitation Wind Pressure Humidity
    00:00 +2°C° 0 mm 1 mps 756 mmHg 71%
    01:00 +1°C° 0 mm 1 mps 755 mmHg 72%
    02:00 +1°C° 0 mm 1 mps 755 mmHg 73%
    03:00 +1°C° 0 mm 1 mps 755 mmHg 75%
    04:00 +1°C° 0 mm 1 mps 755 mmHg 75%
    05:00 +1°C° 0 mm 1 mps 755 mmHg 76%
    06:00 +1°C° 0 mm 1 mps 755 mmHg 76%
    07:00 +2°C° 0 mm 1 mps 755 mmHg 72%
    08:00 +3°C° 0 mm 1 mps 755 mmHg 69%
    09:00 +4°C° 0 mm 1 mps 755 mmHg 65%
    10:00 +6°C° 0 mm 1 mps 755 mmHg 60%
    11:00 +8°C° 0 mm 1 mps 755 mmHg 55%
    12:00 +9°C° 0 mm 2 mps 754 mmHg 49%
    13:00 +10°C° 0 mm 2 mps 754 mmHg 49%
    14:00 +10°C° 0 mm 2 mps 753 mmHg 49%
    15:00 +12°C° 0 mm 2 mps 753 mmHg 48%
    16:00 +9°C° 0 mm 2 mps 753 mmHg 55%
    17:00 +7°C° 0 mm 2 mps 753 mmHg 61%
    18:00 +6°C° 0 mm 2 mps 753 mmHg 68%
    19:00 +5°C° 0 mm 2 mps 753 mmHg 71%
    20:00 +4°C° 0 mm 2 mps 753 mmHg 74%
    21:00 +4°C° 0 mm 2 mps 753 mmHg 77%
    22:00 +4°C° 0 mm 2 mps 753 mmHg 78%
    23:00 +4°C° 0 mm 2 mps 753 mmHg 79%

    20 December, Friday

    Time Temperature Precipitation Wind Pressure Humidity
    00:00 +3°C° 0 mm 2 mps 753 mmHg 80%
    01:00 +3°C° 0 mm 2 mps 753 mmHg 79%
    02:00 +3°C° 0 mm 2 mps 753 mmHg 79%
    03:00 +3°C° 0 mm 2 mps 753 mmHg 78%
    04:00 +3°C° 0 mm 2 mps 753 mmHg 78%
    05:00 +3°C° 0 mm 2 mps 752 mmHg 78%
    06:00 +3°C° 0 mm 2 mps 752 mmHg 78%
    07:00 +4°C° 0 mm 2 mps 752 mmHg 77%
    08:00 +4°C° 0 mm 2 mps 752 mmHg 76%
    09:00 +5°C° 0 mm 2 mps 752 mmHg 76%
    10:00 +5°C° 1 mm 2 mps 752 mmHg 82%
    11:00 +4°C° 1 mm 2 mps 752 mmHg 87%
    12:00 +4°C° 1 mm 2 mps 751 mmHg 93%
    13:00 +4°C° 0.5 mm 2 mps 751 mmHg 94%
    14:00 +5°C° 0.5 mm 2 mps 751 mmHg 94%
    15:00 +5°C° 0.5 mm 2 mps 750 mmHg 94%
    16:00 +5°C° 0.1 mm 2 mps 751 mmHg 95%
    17:00 +6°C° 0.1 mm 1 mps 751 mmHg 96%
    18:00 +5°C° 0.1 mm 1 mps 751 mmHg 96%
    19:00 +5°C° 0 mm 1 mps 752 mmHg 97%
    20:00 +5°C° 0 mm 1 mps 752 mmHg 97%
    21:00 +4°C° 0 mm 1 mps 752 mmHg 97%
    22:00 +3°C° 0 mm 0 mps 753 mmHg 97%
    23:00 +3°C° 0 mm 0 mps 753 mmHg 97%
    Show more